Wind_Speed
25 16 25 37 30 18 19 17 22 12 14 19 19 14 8 10 10 10 12 12 12 8 1 5 9 10 7 7 12 17 21 24 27 28 33 34 32 31 30 31 29 26 27 29
16 26 33 19 18 19 22 18 18 13 12 14 14 13 10 11 8 14 15 13 10 7 3 4 6 9 11 15 17 17 18 20 22 26 30 30 29 30 32 30 30 31 29 30
23 22 20 19 21 25 26 26 18 10 6 2 5 7 13 8 19 20 16 12 11 9 6 1 5 8 8 8 12 19 23 23 23 25 28 29 27 28 31 31 32 32 31 31
16 27 20 29 24 22 24 24 16 18 8 5 7 4 12 11 13 11 17 16 13 11 7 6 6 6 7 9 12 17 21 26 27 27 31 33 32 31 31 34 35 33 31 32
7 14 19 26 25 24 24 11 22 18 8 6 10 3 8 14 11 11 11 15 14 14 13 12 11 6 6 9 14 16 18 25 27 30 34 34 34 33 32 32 35 34 34 33
18 13 6 8 23 20 21 9 13 4 9 11 13 10 4 8 15 9 13 15 15 15 16 14 12 7 5 7 8 8 12 21 25 29 35 36 34 33 34 32 29 33 34 34
10 19 2 5 5 18 14 11 6 9 7 11 18 11 7 12 15 14 12 16 16 17 18 20 18 14 9 4 4 6 8 11 18 24 31 32 30 30 29 30 30 32 33 34
5 3 7 6 3 5 24 17 5 13 12 7 12 7 8 14 19 19 19 18 18 19 19 21 20 20 15 11 6 2 8 9 14 20 26 25 26 29 23 23 26 29 28 30
5 1 2 10 5 4 4 17 21 1 4 9 8 6 11 12 12 14 17 18 18 18 18 21 22 21 17 15 11 5 4 11 15 16 17 20 21 24 28 23 23 24 26 26
2 5 8 6 9 10 5 7 12 9 15 8 5 6 9 10 8 10 10 16 17 18 19 21 22 22 19 16 15 9 6 5 11 15 16 19 23 25 28 26 27 25 25 25
6 4 6 6 7 19 7 5 6 5 4 10 6 3 6 10 9 9 11 15 16 17 20 21 21 17 17 15 14 15 9 5 8 13 14 13 17 25 26 31 30 28 27 26
7 3 4 6 11 8 16 10 4 3 9 5 4 4 7 8 11 11 12 13 13 17 20 21 22 19 20 18 17 16 14 10 5 11 13 14 11 13 16 18 21 24 26 27
12 5 1 5 3 11 9 21 12 4 3 4 4 5 8 11 12 13 14 13 15 17 20 23 25 24 22 21 18 16 15 12 9 5 7 11 11 11 14 15 17 19 23 25
9 10 12 9 9 9 10 21 24 10 3 9 10 12 12 11 11 14 13 16 19 20 22 23 26 27 25 22 20 16 14 14 11 7 3 8 14 16 15 17 18 19 18 21
4 7 15 14 15 21 20 22 21 24 14 6 11 14 10 11 10 14 15 19 20 22 25 27 28 28 28 27 25 19 15 14 13 8 5 0 10 16 18 18 18 20 20 19
4 4 9 11 12 21 22 22 21 18 20 12 12 13 8 14 13 14 19 21 22 24 26 28 29 29 30 30 29 24 18 15 13 10 8 5 3 12 17 16 17 18 19 16
7 1 5 1 3 5 10 19 15 15 16 10 12 6 14 13 15 18 21 23 23 25 27 29 30 31 30 28 29 26 22 17 15 11 9 13 9 4 15 14 14 16 15 15
6 6 3 1 2 6 6 12 7 14 14 15 10 12 15 18 11 26 26 25 25 27 28 29 31 32 28 26 27 24 21 18 15 11 9 14 13 7 8 14 14 15 16 17
10 2 3 3 5 5 6 10 6 5 11 14 14 15 22 26 14 11 30 27 25 26 26 27 29 30 26 26 27 24 22 19 16 13 11 10 12 10 8 5 15 14 16 19
14 3 3 3 4 3 2 11 16 2 2 19 19 17 20 22 9 9 27 27 27 27 27 28 29 28 27 25 25 25 21 19 17 14 14 11 10 13 9 7 5 12 13 17
6 5 6 6 3 3 8 15 12 2 5 20 18 18 18 10 13 22 24 24 24 25 28 27 29 29 27 26 26 24 22 21 21 20 16 11 7 14 10 9 9 10 12 16
3 3 3 5 4 2 18 6 5 4 11 15 17 17 17 16 18 19 20 23 25 25 29 29 29 30 27 28 26 24 23 22 22 22 20 15 10 11 13 12 11 11 11 16
3 3 0 3 2 5 8 9 2 6 8 9 13 18 17 19 17 17 19 20 21 23 27 27 28 29 28 29 28 26 26 25 24 21 21 18 14 10 14 14 14 10 10 13
1 5 1 1 3 5 4 5 6 10 9 14 13 15 11 19 20 20 19 20 21 22 26 25 28 30 32 30 29 28 27 26 23 22 21 19 16 15 13 12 15 16 12 13
0 5 3 1 3 5 5 11 14 15 15 15 14 14 15 17 17 17 19 19 20 23 26 26 27 29 31 30 29 30 29 26 23 20 18 17 15 17 17 12 13 19 17 15
1 4 2 2 1 2 8 12 16 17 21 18 17 20 17 17 19 18 19 20 19 21 22 24 24 25 27 28 30 30 29 27 24 20 17 14 14 15 17 15 14 16 18 21
Wind_Direction
204 204 210 211 215 218 207 198 214 221 197 182 200 197 197 144 146 131 141 134 102 102 105 206 214 196 178 241 231 223 227 229 232 227 227 231 231 225 221 216 213 211 214 221
206 220 220 216 210 228 231 230 225 211 226 178 193 209 198 161 152 119 95 78 70 56 20 302 274 254 234 235 241 236 234 232 229 226 229 234 233 231 226 220 219 216 216 219
220 229 228 220 216 214 220 225 231 229 115 43 165 210 204 186 112 100 92 88 73 62 60 10 256 257 240 226 243 250 242 237 234 231 225 231 229 230 224 223 221 220 220 223
257 240 234 218 231 227 227 219 227 240 152 184 177 232 194 174 123 103 88 80 71 55 40 2 328 295 253 226 226 233 250 241 235 228 226 229 231 229 232 232 227 222 217 223
255 256 234 239 225 228 240 220 208 227 223 135 186 129 231 159 131 111 83 71 58 46 32 12 2 342 314 277 252 240 234 236 236 226 227 231 233 236 237 234 230 224 221 222
259 273 320 284 241 233 238 231 238 226 233 231 192 179 204 154 145 110 85 64 49 41 31 18 12 2 332 283 264 250 247 236 229 228 226 231 233 235 232 230 225 221 220 224
303 250 264 360 274 225 219 165 177 200 206 210 199 192 78 63 75 91 85 62 46 38 32 23 19 18 16 320 264 239 226 230 221 217 220 227 228 227 231 229 222 224 223 225
335 157 1 8 354 300 198 197 178 190 198 174 172 201 118 90 79 75 68 56 42 33 28 24 24 18 18 22 29 219 220 208 215 219 216 216 213 214 207 220 219 220 226 230
327 297 31 50 329 22 280 203 211 245 164 195 118 74 85 104 90 78 66 52 37 27 25 21 22 21 12 19 27 45 178 212 209 223 229 224 208 213 207 208 217 225 233 232
335 286 7 46 12 6 357 335 196 225 196 181 105 135 149 121 83 68 52 41 30 24 21 19 18 15 14 10 17 36 66 147 201 213 215 213 209 208 207 206 205 213 229 234
341 282 38 67 53 35 352 24 325 293 199 194 131 96 26 64 57 38 35 31 24 22 18 13 10 9 7 5 15 20 33 97 153 193 202 206 216 219 217 216 215 214 217 221
352 301 51 84 119 99 54 14 288 291 178 46 73 102 44 52 53 39 27 19 17 18 15 10 7 8 4 6 8 6 15 27 80 182 194 203 209 217 219 225 229 231 230 229
353 13 232 152 323 19 36 8 349 210 287 40 109 120 60 40 43 34 24 15 17 12 8 7 6 7 2 1 1 3 2 10 24 52 174 201 206 225 231 235 232 233 234 237
64 44 71 86 80 50 36 21 18 49 33 81 60 84 40 27 22 19 13 21 14 10 7 3 3 359 358 352 351 354 358 357 10 26 198 207 215 224 233 243 242 240 247 243
81 90 99 106 95 66 44 36 27 44 35 58 104 67 24 18 9 8 24 14 9 6 4 0 358 355 349 349 348 350 355 358 352 14 33 204 223 228 231 232 247 247 254 247
351 130 135 131 111 72 49 30 41 33 33 41 67 63 12 4 7 30 21 10 6 3 359 356 353 350 345 346 348 347 346 351 344 346 2 13 276 236 233 238 239 241 252 249
354 294 199 167 322 54 31 15 30 52 40 27 41 17 6 5 3 44 23 11 4 360 356 353 350 346 342 344 347 342 339 338 340 338 355 353 353 263 237 235 246 245 251 248
330 326 34 63 358 49 118 39 21 73 47 35 28 23 12 354 30 51 22 6 0 358 354 350 347 342 341 343 341 335 335 330 331 343 354 333 343 355 245 237 249 246 249 242
345 305 22 91 52 130 55 14 346 332 51 25 9 11 6 352 339 350 3 356 354 353 351 348 345 340 343 343 336 333 331 326 328 332 326 327 341 343 325 223 233 242 250 243
350 354 99 35 69 51 10 346 335 326 85 9 8 4 1 2 16 338 341 348 347 347 350 351 344 350 348 344 337 336 333 329 314 313 317 326 337 318 326 314 259 236 259 243
343 347 23 44 101 91 354 326 328 318 348 344 354 355 357 355 329 322 337 341 339 343 350 351 355 354 352 344 339 338 334 323 313 304 301 303 325 317 307 299 287 262 243 255
24 329 25 336 63 70 10 16 80 326 336 334 339 337 335 326 325 330 332 337 336 347 352 355 357 355 358 354 346 341 335 323 317 306 301 290 312 313 302 292 280 277 264 254
28 144 80 92 84 53 72 112 97 342 322 327 318 315 318 320 322 324 324 332 338 353 348 356 356 353 359 0 357 344 335 329 320 309 301 297 297 306 295 295 280 288 276 262
85 14 93 84 336 320 179 95 355 344 321 319 317 315 313 313 324 324 327 333 341 356 347 350 354 358 358 359 357 351 341 333 327 317 305 297 288 302 286 281 275 284 286 290
273 333 336 230 8 15 145 345 335 333 336 331 326 323 320 316 320 324 328 332 342 349 343 351 353 354 355 353 357 353 346 340 331 323 314 300 285 290 288 279 266 270 281 285
35 198 104 239 275 282 303 315 324 328 335 335 329 329 331 323 323 328 332 339 341 334 333 343 348 350 351 351 356 354 350 344 339 331 322 310 282 290 285 285 266 254 269 280
Height
1416 1420 1408 1395 1410 1419 1421 1423 1425 1421 1419 1428 1432 1444 1442 1447 1449 1453 1458 1463 1466 1470 1474 1477 1479 1482 1484 1487 1489 1491 1494 1497 1500 1503 1505 1509 1512 1517 1521 1526 1531 1534 1538 1540
1413 1400 1387 1407 1413 1417 1421 1418 1414 1419 1415 1424 1432 1436 1439 1444 1449 1453 1458 1463 1467 1470 1473 1475 1476 1477 1479 1483 1486 1488 1490 1493 1495 1498 1501 1505 1509 1512 1516 1520 1525 1530 1532 1535
1399 1387 1405 1407 1407 1411 1409 1415 1417 1418 1419 1424 1430 1440 1438 1442 1449 1454 1460 1465 1469 1472 1473 1472 1473 1474 1475 1477 1481 1483 1486 1488 1491 1494 1497 1500 1504 1507 1511 1514 1518 1523 1527 1530
1399 1393 1394 1402 1402 1403 1405 1404 1415 1415 1430 1444 1430 1449 1436 1436 1449 1455 1461 1466 1471 1473 1473 1473 1471 1471 1471 1472 1474 1475 1480 1483 1486 1490 1491 1493 1497 1500 1504 1508 1511 1517 1522 1525
1397 1390 1392 1393 1396 1399 1393 1401 1406 1414 1420 1429 1433 1451 1425 1428 1449 1457 1465 1470 1472 1473 1473 1472 1470 1469 1468 1468 1469 1471 1473 1477 1480 1484 1486 1489 1491 1496 1500 1503 1507 1511 1516 1520
1402 1398 1404 1397 1389 1393 1397 1401 1404 1411 1417 1429 1421 1431 1435 1431 1442 1458 1468 1472 1474 1474 1473 1472 1470 1467 1466 1467 1467 1467 1468 1471 1475 1478 1480 1483 1487 1490 1493 1497 1501 1504 1509 1513
1402 1395 1403 1406 1398 1387 1395 1405 1413 1420 1418 1408 1409 1427 1457 1450 1453 1461 1469 1474 1476 1476 1475 1473 1469 1466 1465 1465 1465 1465 1465 1467 1471 1474 1476 1479 1483 1486 1489 1493 1496 1499 1503 1507
1420 1400 1413 1415 1412 1397 1387 1391 1394 1394 1400 1410 1408 1416 1455 1461 1464 1469 1472 1475 1476 1476 1477 1475 1471 1468 1466 1464 1463 1463 1464 1465 1469 1471 1472 1474 1478 1483 1488 1491 1493 1495 1498 1502
1428 1415 1418 1420 1417 1414 1394 1379 1374 1381 1380 1399 1438 1466 1462 1466 1471 1474 1476 1478 1480 1478 1478 1477 1474 1470 1468 1465 1463 1462 1462 1464 1465 1468 1468 1470 1475 1479 1484 1488 1491 1493 1496 1498
1436 1429 1420 1421 1418 1422 1421 1415 1387 1382 1381 1392 1435 1457 1462 1467 1475 1477 1480 1481 1482 1481 1479 1476 1475 1472 1469 1466 1464 1462 1461 1462 1464 1465 1465 1468 1471 1475 1479 1482 1486 1490 1492 1495
1438 1432 1425 1423 1445 1450 1436 1430 1430 1403 1385 1373 1427 1473 1484 1482 1484 1484 1484 1484 1483 1482 1480 1477 1475 1473 1471 1468 1465 1462 1461 1460 1461 1462 1464 1465 1468 1471 1474 1477 1481 1484 1487 1491
1437 1435 1432 1442 1449 1451 1458 1455 1446 1420 1378 1406 1423 1484 1489 1488 1487 1487 1488 1486 1484 1483 1481 1479 1476 1473 1471 1468 1466 1464 1461 1460 1459 1460 1462 1464 1466 1468 1470 1473 1476 1478 1482 1485
1443 1445 1436 1446 1447 1449 1456 1461 1451 1429 1423 1451 1440 1486 1494 1493 1491 1489 1489 1488 1485 1483 1481 1478 1475 1473 1472 1470 1466 1463 1461 1459 1458 1457 1458 1461 1463 1465 1468 1470 1472 1474 1476 1479
1452 1460 1459 1473 1482 1481 1476 1467 1457 1435 1454 1467 1480 1494 1498 1498 1494 1492 1491 1488 1486 1484 1481 1479 1475 1474 1472 1470 1467 1463 1461 1460 1457 1455 1456 1458 1460 1462 1464 1466 1468 1469 1471 1473
1460 1474 1472 1480 1481 1477 1481 1478 1474 1469 1471 1476 1493 1496 1503 1501 1497 1494 1492 1490 1488 1485 1481 1478 1475 1474 1470 1467 1464 1460 1458 1456 1455 1453 1455 1455 1456 1458 1460 1462 1464 1465 1466 1467
1461 1469 1470 1471 1468 1470 1484 1485 1486 1485 1482 1488 1487 1497 1505 1503 1498 1494 1496 1493 1490 1487 1483 1479 1476 1473 1469 1466 1463 1460 1457 1456 1455 1453 1452 1452 1453 1454 1456 1457 1458 1460 1461 1462
1473 1471 1469 1470 1461 1459 1484 1497 1493 1497 1495 1499 1501 1507 1503 1502 1500 1499 1498 1496 1493 1489 1484 1480 1476 1473 1470 1465 1462 1460 1457 1455 1453 1451 1450 1450 1450 1450 1451 1452 1453 1454 1455 1457
1477 1472 1464 1474 1466 1504 1508 1506 1505 1507 1508 1508 1511 1506 1505 1503 1501 1496 1499 1498 1495 1490 1485 1481 1476 1472 1468 1465 1461 1458 1456 1453 1452 1449 1448 1448 1446 1446 1446 1447 1449 1450 1451 1452
1476 1479 1491 1497 1500 1506 1506 1509 1512 1509 1513 1513 1509 1504 1504 1499 1487 1495 1500 1499 1496 1491 1486 1482 1477 1472 1467 1463 1460 1455 1453 1451 1449 1447 1445 1444 1443 1443 1443 1443 1444 1446 1447 1448
1481 1476 1486 1487 1502 1501 1520 1513 1508 1504 1505 1513 1510 1509 1506 1501 1500 1506 1502 1498 1495 1491 1486 1480 1475 1469 1466 1462 1458 1454 1451 1449 1446 1443 1442 1441 1440 1440 1440 1439 1440 1441 1442 1444
1501 1501 1497 1486 1506 1515 1519 1513 1508 1509 1522 1516 1514 1513 1511 1512 1515 1508 1503 1501 1499 1493 1484 1477 1472 1469 1465 1461 1456 1452 1449 1446 1444 1442 1441 1439 1438 1439 1439 1438 1438 1437 1438 1439
1523 1526 1515 1502 1507 1525 1519 1514 1523 1528 1524 1521 1517 1516 1515 1514 1510 1507 1505 1501 1497 1488 1479 1475 1469 1468 1464 1460 1455 1451 1448 1444 1441 1440 1438 1437 1437 1436 1436 1435 1435 1435 1435 1436
1531 1530 1529 1528 1524 1524 1524 1525 1526 1526 1525 1524 1521 1516 1514 1512 1509 1507 1504 1502 1496 1484 1477 1473 1472 1470 1463 1458 1455 1449 1445 1441 1438 1435 1434 1434 1433 1432 1433 1433 1432 1432 1432 1432
1522 1522 1526 1526 1524 1523 1524 1525 1525 1525 1523 1521 1518 1516 1514 1511 1506 1503 1500 1495 1488 1481 1480 1476 1471 1465 1459 1456 1454 1450 1444 1439 1435 1431 1430 1430 1429 1429 1429 1429 1429 1429 1429 1429
1526 1523 1525 1525 1523 1522 1523 1523 1522 1521 1520 1518 1515 1513 1510 1508 1505 1502 1497 1492 1483 1476 1475 1472 1468 1463 1460 1459 1453 1448 1442 1438 1433 1429 1427 1427 1427 1426 1426 1425 1425 1426 1426 1427
1525 1527 1532 1530 1526 1526 1524 1522 1520 1517 1514 1512 1509 1505 1503 1500 1496 1492 1488 1484 1482 1481 1478 1473 1470 1467 1464 1458 1451 1445 1441 1436 1431 1426 1423 1423 1422 1424 1423 1422 1422 1423 1423 1423